metlocid,date_time,avg_wspd,std_wspd,min_wspd,max_wspd,n_wspd,n_comments
FRIM,12/1/93,3.531721191,1.770365124,0,10.3,3515,17
FRIM,1/1/94,3.213617276,1.35496085,0.1,6.9,1667,4
FRIM,2/1/94,1.730357147,1.513102082,0.4,8.6,224,0
FRIM,3/1/94,1.743548385,2.226950921,0.2,11.6,248,0
FRIM,4/1/94,1.947083335,2.165358623,0.5,10.9,240,0
FRIM,5/1/94,2.593951613,3.606068274,0.5,19.6,248,0
FRIM,6/1/94,3.106250006,3.99192733,0.3,14.4,240,0
FRIM,7/1/94,2.379032256,3.1281735,0.4,16,248,0
FRIM,8/1/94,2.281451615,3.0906249,0.3,14.1,248,1
FRIM,9/1/94,1.76208333,2.317357599,0.4,17.7,240,0
FRIM,10/1/94,2.198790324,2.375558441,0.2,11.4,248,0
FRIM,11/1/94,3.263425927,2.312012165,0.5,12.7,216,0
FRLM,11/1/94,2.710982663,2.281076266,0,6.4,173,173
FRLM,12/1/94,3.732526877,1.625265355,0,9.3,2232,2232
FRLM,1/1/95,3.522279052,1.754447267,0,8.9,2229,755
FRLM,2/1/95,3.742594246,3.476999143,0,18.89,2016,30
FRLM,3/1/95,2.088284049,3.144526145,0,18.82,2232,37
FRLM,4/1/95,2.102129626,3.151272554,0,16.58,2160,14
FRLM,5/1/95,2.194726704,3.588960374,0,20.64,2232,31
FRLM,6/1/95,3.273810181,4.525732566,0,20.92,2160,43
FRLM,7/1/95,1.470667562,1.986341539,0,12.83,2232,11
FRLM,8/1/95,3.701106636,5.184490241,0,21.84,2232,15
FRLM,9/1/95,2.56900463,3.76845585,0,20.14,2160,23
FRLM,10/1/95,2.688629032,3.236551392,0,16.28,2232,10
FRLM,11/1/95,4.433506934,3.24246617,0,17.53,2381,49
FRLM,12/1/95,3.632765455,1.56556638,0,10.7,2976,2976
FRLM,1/1/96,4.258063864,2.20379385,0,14.9,2975,2258
FRLM,2/1/96,2.632219829,1.910438062,0,8.8,2784,39
FRLM,3/1/96,2.972043013,4.182713285,0,23.4,2976,68
FRLM,4/1/96,2.778055557,3.960282717,0,18.7,2880,39
FRLM,5/1/96,1.241969089,2.123929138,0,13.7,2976,117
FRLM,6/1/96,2.686944446,3.962170414,0,20.6,2880,37
FRLM,7/1/96,2.876243281,3.836776939,0,20.1,2976,88
FRLM,8/1/96,2.940517824,3.966456554,0,18,2974,26
FRLM,9/1/96,1.693125,2.728751867,0,17.9,2880,56
FRLM,10/1/96,2.355040323,3.000568258,0,15,2976,43
FRLM,11/1/96,3.632626821,2.382452821,0,16.8,2878,7
FRLM,12/1/96,3.830712368,1.775040104,0,9.3,2976,5
FRLM,1/1/97,3.245127685,1.796219123,0,9.6,2976,21
FRLM,2/1/97,3.148883927,2.917494465,0,18.1,2688,34
FRLM,3/1/97,1.15638441,1.474194686,0,10,2976,84
FRLM,4/1/97,1.350833336,2.33144519,0,19.6,2880,91
FRLM,5/1/97,4.353629034,5.325485284,0,22.8,2976,53
FRLM,6/1/97,3.528506946,4.662774827,0,20.3,2880,29
FRLM,7/1/97,2.28487395,3.582517485,0,18.6,2975,86
FRLM,8/1/97,2.808198925,4.164049415,0,19.6,2976,49
FRLM,9/1/97,2.815069447,3.687032468,0,16.8,2880,3
FRLM,10/1/97,4.63091398,4.72428648,0,20.7,2976,14
FRLM,11/1/97,5.180319886,3.367363879,0,15.7,2876,3
FRLM,12/1/97,4.153259405,1.842189819,0,9.4,2976,2
FRLM,1/1/98,3.623790321,1.867294418,0,8.9,2976,18
FRLM,2/1/98,2.855915182,2.98232893,0,14.9,2688,22
FRLM,3/1/98,1.621639787,2.368048262,0,14.1,2976,46
FRLM,4/1/98,2.395416668,3.674603256,0,18.1,2880,68
FRLM,5/1/98,2.945900541,4.221836394,0,21.8,2976,19
FRLM,6/1/98,3.664999999,4.800585088,0,23.9,2880,20
FRLM,7/1/98,2.741969088,3.814901701,0,20.7,2976,33
FRLM,8/1/98,2.911525539,5.101465751,0,25.7,2976,61
FRLM,9/1/98,1.329513892,2.016962748,0,17.1,2880,70
FRLM,10/1/98,3.379099459,3.808533538,0,22.2,2976,26
FRLM,11/1/98,3.803368057,2.614356212,0,13.6,2880,22
FRLM,12/1/98,5.031350803,2.562274788,0,14.9,2976,0
FRLM,1/1/99,3.518212366,2.169358263,0,11.1,2976,24
FRLM,2/1/99,2.788206845,2.176069747,0,11.9,2688,20
FRLM,3/1/99,1.483602153,2.397658505,0,13.2,2976,80
FRLM,4/1/99,1.270833337,1.882978915,0,12.3,2880,134
FRLM,5/1/99,2.067069895,3.178679648,0,16.1,2976,64
FRLM,6/1/99,2.103993057,3.350236732,0,20.9,2880,63
FRLM,7/1/99,3.461559143,4.543004685,0,21.6,2976,11
FRLM,8/1/99,1.948958333,3.237414503,0,16.9,2976,139
FRLM,9/1/99,2.67465278,3.80518785,0,17.7,2880,20
FRLM,10/1/99,3.26142473,4.739672407,0,29.6,2976,6
FRLM,11/1/99,3.915555554,2.614461554,0,14.1,2880,4
FRLM,12/1/99,4.359374998,1.998920587,0,16.2,2976,1
FRLM,1/1/00,4.188071237,2.149551965,0,11.9,2976,7
FRLM,2/1/00,3.73962264,3.010567783,0,17.7,2756,44
FRLM,3/1/00,2.300974464,3.236104471,0,17.8,2976,35
FRLM,4/1/00,1.309298031,1.769800331,0,11.5,1624,1298
FRLM,5/1/00,,,,,0,2976
FRLM,6/1/00,,,,,0,2880
FRLM,7/1/00,0.738933953,0.524671831,0,2.8,863,2123
FRLM,8/1/00,3.807022853,5.08355012,0,22.3,2976,61
FRLM,9/1/00,3.87854167,5.333384082,0,22.8,2880,22
FRLM,10/1/00,2.116028229,2.3441431,0,14.3,2976,33
FRLM,11/1/00,4.837873527,3.200442697,0,16.2,2878,4
FRLM,12/1/00,4.302251345,1.64640836,0,8.5,2976,1
FRLM,1/1/01,4.039952955,1.864053554,0,10.5,2976,20
FRLM,2/1/01,2.904464286,2.392317006,0,15.1,2688,58
FRLM,3/1/01,1.633266133,3.120281538,0,24.9,2976,158
FRLM,4/1/01,2.090451392,3.121917021,0,20.9,2880,114
FRLM,5/1/01,3.390188173,4.701578264,0,20.5,2976,181
FRLM,6/1/01,3.695332759,4.549146034,0,20.5,2314,596
FRLM,7/1/01,,,,,0,2976
FRLM,8/1/01,,,,,0,2976
FRLM,9/1/01,,,,,0,2880
FRLM,10/1/01,,,,,0,2976
FRLM,11/1/01,4.625757568,1.539678903,0.6,8.7,330,2550
FRLM,12/1/01,4.766935481,2.335136541,0,14.6,2976,3
FRLM,1/1/02,4.33030914,2.672892006,0,18.1,2976,7
FRLM,2/1/02,3.25260417,2.341930364,0,13.9,2688,22
FRLM,3/1/02,2.595161291,3.099424193,0,14.6,2976,24
FRLM,4/1/02,2.83104167,3.852811429,0,18.5,2880,71
FRLM,5/1/02,3.335987908,3.932660732,0,16.6,2976,18
FRLM,6/1/02,1.770937501,2.600918788,0,16.3,2880,34
FRLM,7/1/02,2.153125001,3.239338602,0,18,2976,39
FRLM,8/1/02,2.20278898,3.773554454,0,21.1,2976,28
FRLM,9/1/02,1.712986112,2.343473959,0,15.1,2880,35
FRLM,10/1/02,1.801948928,2.390002195,0,15.8,2976,28
FRLM,11/1/02,3.521180558,3.046451079,0,18,2880,16
FRLM,12/1/02,4.227150541,1.851206854,0,12.8,2976,1
FRLM,1/1/03,3.660517473,1.809133767,0,10.3,2976,5
FRLM,2/1/03,2.661532737,1.811253994,0,10.4,2688,12
FRLM,3/1/03,2.044186832,3.019832453,0,17.3,2976,46
FRLM,4/1/03,1.394965282,2.359324254,0,19.2,2880,50
FRLM,5/1/03,4.594993276,4.955950336,0,18.4,2976,20
FRLM,6/1/03,1.586493057,2.009581472,0,17.8,2880,8
FRLM,7/1/03,4.010517472,4.637401499,0,19.9,2976,5
FRLM,8/1/03,1.783736562,2.298485649,0,15,2976,9
FRLM,9/1/03,4.455416675,5.762270112,0,22.3,2880,13
FRLM,10/1/03,4.023387096,3.943234696,0,18.7,2976,3
FRLM,11/1/03,3.645902779,1.968401976,0,9.4,2880,4
FRLM,12/1/03,3.907930103,2.028281786,0,13,2976,3
FRLM,1/1/04,3.717170699,1.624583471,0,9.9,2976,2
FRLM,2/1/04,2.463397989,1.812491118,0,7.3,2784,11
FRLM,3/1/04,1.001915326,0.930910654,0,6.9,2976,41
FRLM,4/1/04,1.535486111,1.910199425,0,12.3,2880,11
FRLM,5/1/04,3.241801081,4.430646522,0,20.5,2976,19
FRLM,6/1/04,5.303298614,6.792808728,0,27.6,2880,5
FRLM,7/1/04,1.888138444,2.41769606,0,13.9,2976,7
FRLM,8/1/04,3.770094088,5.433701206,0,30.2,2976,3
FRLM,9/1/04,1.665833334,2.066267384,0,15.7,2880,12
FRLM,10/1/04,2.621438173,3.100917308,0,16.2,2976,21
FRLM,11/1/04,4.149479168,2.53168043,0,14.6,2880,3
FRLM,12/1/04,3.593951612,1.647505997,0,9.8,2976,10
FRLM,1/1/05,3.467876343,1.760167007,0,11.7,2976,5
FRLM,2/1/05,2.71729911,1.946432387,0,7.9,2688,10
FRLM,3/1/05,1.692439518,2.003722578,0,14.2,2976,15
FRLM,4/1/05,1.140347224,1.302416014,0,11.1,2880,18
FRLM,5/1/05,2.892977153,3.550017315,0,16.7,2976,15
FRLM,6/1/05,3.497881947,4.7517934,0,20.6,2880,6
FRLM,7/1/05,2.712029571,4.75093867,0,26,2976,20
FRLM,8/1/05,3.046538984,4.031814006,0,21.5,2976,3
FRLM,9/1/05,1.89121528,2.509746738,0,19.4,2880,3
FRLM,10/1/05,4.027587365,3.754355905,0,17.9,2976,3
FRLM,11/1/05,4.100381946,2.185808659,0,11.7,2880,2
FRLM,12/1/05,3.909307792,1.711392588,0,10.8,2976,5
FRLM,1/1/06,3.495631721,1.705607485,0,9.5,2976,15
FRLM,2/1/06,2.58065476,2.005130563,0,10.1,2688,59
FRLM,3/1/06,1.698991935,2.628811077,0,23.4,2976,108
FRLM,4/1/06,1.132604169,2.216234304,0,16,2880,396
FRLM,5/1/06,1.609879036,2.896924453,0,20.6,2976,410
FRLM,6/1/06,3.238194449,4.107779399,0,16.8,2880,217
FRLM,7/1/06,1.253192209,2.821605114,0,20.8,2976,554
FRLM,8/1/06,2.755107528,3.788707781,0,18.8,2976,150
FRLM,9/1/06,3.357187501,4.544900502,0,17.9,2880,107
FRLM,10/1/06,1.555813176,2.055807884,0,14,2976,97
FRLM,11/1/06,2.730555553,2.02176513,0,11.5,2880,67
FRLM,12/1/06,4.17456317,1.905925697,0,13.6,2976,2
FRLM,1/1/07,3.668783601,1.933914046,0,12.2,2976,24
FRLM,2/1/07,2.688504462,1.905109845,0,12,2688,36
FRLM,3/1/07,1.866801078,2.298127844,0,15.8,2976,69
FRLM,4/1/07,2.707569445,4.530244733,0,21.6,2880,128
FRLM,5/1/07,2.627049735,4.098625826,0,25.3,2976,211
FRLM,6/1/07,3.389583335,4.155088589,0,24.1,2880,38
FRLM,7/1/07,3.480443548,4.140092221,0,17.6,2976,54
FRLM,8/1/07,3.481081988,4.617119213,0,23.1,2976,107
FRLM,9/1/07,3.464305555,4.217030362,0,18.7,2880,46
FRLM,10/1/07,2.163474464,2.443116875,0,15.7,2976,60
FRLM,11/1/07,3.130000002,2.510278144,0,15.3,2880,20
FRLM,12/1/07,3.897008401,1.704981368,0,9.7,2975,2734
FRLM,1/1/08,3.54647177,1.582662678,0,7.5,2976,2976
FRLM,2/1/08,3.151616383,1.930855864,0,10.1,2784,2784
FRLM,3/1/08,1.611626346,2.469373935,0,15.9,2976,2976
FRLM,4/1/08,1.863402781,2.6820569,0,13.1,2880,2880
FRLM,5/1/08,2.18733199,3.027898978,0,15.3,2976,2976
FRLM,6/1/08,3.71309028,4.763742174,0,24.8,2880,2880
FRLM,7/1/08,2.226512099,3.455722238,0,15.5,2976,2976
FRLM,8/1/08,1.359610217,2.14820192,0,16,2976,2976
FRLM,9/1/08,4.807847228,4.294473406,0,18.1,2880,2880
FRLM,10/1/08,2.210987906,2.071749206,0,10.2,2976,2976
FRLM,11/1/08,4.09652778,2.334512744,0,13,2880,2880
FRLM,12/1/08,4.329368276,1.807535414,0,12.9,2976,2976
FRLM,1/1/09,3.512903221,1.742863911,0,13.2,2976,815
FRLM,2/1/09,2.033593749,1.656303322,0,10.5,2688,24
FRLM,3/1/09,1.10544355,1.193161437,0,8.4,2976,76
FRLM,4/1/09,3.328784728,4.459709793,0,19.7,2880,41
FRLM,5/1/09,2.181787636,3.106436412,0,14.5,2976,144
FRLM,6/1/09,2.74701389,3.39017,0,15.8,2880,72
FRLM,7/1/09,1.934240594,2.52624682,0,15.5,2976,53
FRLM,8/1/09,2.612600811,3.44193211,0,15.5,2976,61
FRLM,9/1/09,3.918923613,4.854521981,0,19.6,2880,37
FRLM,10/1/09,2.098622314,2.044386811,0,11.3,2976,35
FRLM,11/1/09,3.46988538,2.79581236,0,14.5,2879,10
FRLM,12/1/09,3.872950266,1.656276323,0,8.3,2976,9
FRLM,1/1/10,3.446202955,1.639025851,0,8.2,2976,14
FRLM,2/1/10,2.502641368,2.220105643,0,13.2,2688,20
FRLM,3/1/10,1.201780916,1.259750614,0,9.7,2976,74
FRLM,4/1/10,1.883263891,2.763209979,0,15.4,2880,72
FRLM,5/1/10,2.178124999,2.99144583,0,13.1,2976,106
FRLM,6/1/10,2.037013894,3.010228853,0,14.1,2880,107
FRLM,7/1/10,3.060483875,4.376623659,0,20.1,2976,132
FRLM,8/1/10,2.891565866,4.363700481,0,22.8,2976,66
FRLM,9/1/10,1.908819444,2.583894589,0,16.3,2880,49
FRLM,10/1/10,2.635114244,3.283911398,0,24.7,2976,33
FRLM,11/1/10,4.857881947,3.202999913,0,25,2880,2
FRLM,12/1/10,4.551865545,2.605636846,0,17.7,2975,8
FRLM,1/1/11,3.384643817,1.759076173,0,8.3,2976,11
FRLM,2/1/11,3.053497021,2.741716695,0,14.3,2688,28
FRLM,3/1/11,2.223118283,2.71150983,0,15,2976,24
FRLM,4/1/11,3.195381944,4.340930524,0,22.2,2880,28
FRLM,5/1/11,2.601982529,3.663751961,0,17.5,2976,40
FRLM,6/1/11,3.290034729,4.352977615,0,18.2,2880,55
FRLM,7/1/11,4.439616936,5.434860372,0,21.7,2976,38
FRLM,8/1/11,2.754133065,3.746074208,0,22.6,2976,58
FRLM,9/1/11,3.295381946,4.655975352,0,24.9,2880,17
FRLM,10/1/11,3.013877687,3.34298296,0,21.1,2976,16
FRLM,11/1/11,3.575017546,2.396409892,0,13.4,2850,40
FRLM,12/1/11,5.398252686,3.122256833,0,21.6,2976,1
FRLM,1/1/12,4.608266126,2.092251947,0,10.2,2976,2
FRLM,2/1/12,4.31849856,3.759124357,0,18.7,2784,4
FRLM,3/1/12,2.311962366,2.640184241,0,14.5,2976,4
FRLM,4/1/12,3.483229169,4.592997976,0,19.9,2880,14
FRLM,5/1/12,7.812466399,7.45263154,0,26,2976,8
FRLM,6/1/12,4.146319451,5.599787906,0,30.1,2880,11
FRLM,7/1/12,1.697715054,2.481405427,0,17.8,2976,44
FRLM,8/1/12,5.124092747,6.755635875,0,31.3,2976,5
FRLM,9/1/12,3.863715282,5.27607596,0,21.9,2880,11
FRLM,10/1/12,2.991297045,3.790547495,0,19.9,2976,17
FRLM,11/1/12,3.995345606,2.561161354,0,14.2,2879,9
FRLM,12/1/12,4.256485213,1.947336457,0,9.9,2976,2
FRLM,1/1/13,4.235786292,2.10508139,0,12,2976,5
FRLM,2/1/13,3.173102677,2.485288707,0,13.4,2688,1516
FRLM,3/1/13,1.930544356,2.476549068,0,19.5,2976,2976
FRLM,4/1/13,2.437986113,3.182558424,0,15.9,2880,2880
FRLM,5/1/13,2.919086024,3.758585291,0,22.7,2976,2976
FRLM,6/1/13,2.371458333,2.913009582,0,15.4,2880,2880
FRLM,7/1/13,2.395362903,3.512403757,0,17.7,2976,2976
FRLM,8/1/13,3.404401882,4.976020898,0,31.6,2976,2976
FRLM,9/1/13,4.34454861,5.360296012,0,25.2,2880,2880
FRLM,10/1/13,2.019186829,2.707231174,0,17.3,2976,2976
FRLM,11/1/13,4.201041664,3.144680575,0,16.5,2880,2880
FRLM,12/1/13,4.761391129,1.918829638,0,12.6,2976,2976
FRLM,1/1/14,4.852071404,3.050568788,0.05,17.4,2969,2969
FRLM,2/1/14,5.040716957,3.569763888,0.05,18.16,2678,2678
FRLM,3/1/14,2.917347975,3.253339419,0.06,15.59,2960,2960
FRLM,4/1/14,1.139960935,0.862804847,0.06,9.34,768,768
FRLM,11/1/14,4.057778909,2.114391769,0.03,9.56,1963,1963
FRLM,12/1/14,4.792379032,1.952122855,0.15,10.26,2976,2976
FRLM,1/1/15,4.277308471,2.268244972,0,15.4,2976,2976
FRLM,2/1/15,3.979955356,2.915275351,0,15.68,2688,2688
FRLM,3/1/15,1.472849463,1.748680873,0,12.76,2976,2976
FRLM,4/1/15,1.958447917,2.818099925,0,15.76,2880,2880
FRLM,5/1/15,1.540581314,2.012322993,0,21.33,2976,2976
FRLM,6/1/15,3.745812497,4.834413878,0,26.01,2880,2880
FRLM,7/1/15,3.103837368,4.120402085,0,23.15,2976,2976
FRLM,8/1/15,4.085766127,5.540914747,0.02,26.52,2976,2976
FRLM,9/1/15,3.819687499,5.097468055,0,22.08,2880,2880
FRLM,10/1/15,3.877468055,3.888275794,0,21.27,2974,2974
FRLM,11/1/15,4.395850696,2.717900768,0,17.88,2880,2880
FRLM,12/1/15,5.092700579,2.389890022,0,18,2929,1009
FRLM,1/1/16,4.610483874,2.462735579,0,16.9,2976,0
FRLM,2/1/16,3.911350578,3.010423942,0,15.2,2784,0
FRLM,3/1/16,1.672039649,2.289839194,0,19.1,2976,0
FRLM,4/1/16,2.180687499,3.117773468,0,16.57,2880,0
FRLM,5/1/16,2.847202516,4.426135899,0,26.74,2227,0
FRLM,11/1/16,3.09161712,2.757206162,0.01,16.79,2523,0
FRLM,12/1/16,3.721320567,2.203801036,0.04,14.57,2976,0
FRLM,1/1/17,4.378195571,2.089721983,0,11.18,2976,0
FRLM,2/1/17,3.224918155,2.366378178,0,13.88,2688,0
FRLM,3/1/17,1.952106854,2.445485693,0,15.99,2976,0
FRLM,4/1/17,3.980621522,4.80366013,0.01,22.31,2880,0
FRLM,5/1/17,3.77177083,5.114115217,0,27.68,2976,0
FRLM,6/1/17,2.752645833,3.557953835,0,22.14,2880,0
FRLM,7/1/17,4.299784943,5.081689926,0,20.9,2976,0
FRLM,8/1/17,4.629358198,5.691154134,0,25.17,2976,0
FRLM,9/1/17,2.9009375,3.742589561,0,20.5,2880,0
FRLM,10/1/17,3.596374327,3.755024569,0.03,18.5,2976,0
FRLM,11/1/17,3.861489579,2.818381784,0,17.86,2880,0
FRLM,12/1/17,4.671239062,2.149150906,0.05,11.94,2970,0
FRLM,1/1/18,4.044206989,2.226574405,0,11.23,2976,0
FRLM,2/1/18,3.115963542,2.72960953,0,18.14,2688,0
FRLM,3/1/18,3.171864919,3.697410276,0,19.12,2976,0
FRLM,4/1/18,4.648295133,6.531884707,0,26.53,2880,0
FRLM,5/1/18,1.993595428,2.876770975,0,15.79,2976,0
FRLM,6/1/18,4.322506944,4.850885246,0,25.86,2880,0
FRLM,7/1/18,4.820329293,6.796781795,0,29.9,2976,0
FRLM,8/1/18,2.629018817,4.417523013,0,23.68,2976,0
FRLM,9/1/18,4.680499996,6.508708553,0,25.51,2880,0
FRLM,10/1/18,5.226982521,5.080114724,0,24.67,2976,0
FRLM,11/1/18,4.534760419,2.811384901,0,17.91,2880,0
FRLM,12/1/18,4.807387206,2.516544004,0.01,14.33,2970,0
FRLM,1/1/19,4.354801746,1.847786181,0.19,10.62,2976,0
FRLM,2/1/19,3.530662204,3.141642874,0,17.62,2688,0
FRLM,3/1/19,1.866243278,2.251472391,0,13.13,2976,0
FRLM,4/1/19,3.514340278,4.592756957,0,19.1,2880,0
FRLM,5/1/19,4.213346774,5.219427244,0,23.09,2976,0
FRLM,6/1/19,5.054350691,6.033531527,0,26.96,2880,0
FRLM,7/1/19,4.167066533,5.822108792,0,26.2,2976,0
FRLM,8/1/19,4.132402551,5.307641872,0,22.31,2976,0
FRLM,9/1/19,4.299538198,4.932436254,0,22.39,2880,0
FRLM,10/1/19,3.267889787,3.346759762,0,17.84,2976,0
FRLM,11/1/19,4.092736107,2.382106006,0,12.84,2880,0
FRLM,12/1/19,4.250638963,2.137053501,0.038,11.1,2972,0
FRLM,1/1/20,4.093421039,1.813124467,0,9.05,2976,0
FRLM,2/1/20,2.898818963,2.385331528,0,14.07,2784,0
FRLM,3/1/20,3.566331316,5.172405888,0,23.28,2976,0
FRLM,4/1/20,4.010201041,5.267194745,0,26.33,2880,0
FRLM,5/1/20,2.763062162,3.539847029,0.004,16,2976,0
FRLM,6/1/20,4.417515969,5.553718843,0,21.55,2880,0
FRLM,7/1/20,3.633378359,5.242426368,0,24.42,2976,0
FRLM,8/1/20,3.40886929,4.961503294,0,28.33,2976,0
FRLM,9/1/20,3.200964584,4.379836659,0,22.36,2880,0
FRLM,10/1/20,4.006454303,4.383903617,0,19.8,2976,0
FRLM,11/1/20,3.741822917,2.288275625,0.013,11.89,2880,0
FRLM,12/1/20,4.554317208,2.094126916,0.082,11.5,2976,0
FRLM,1/1/21,4.419843413,2.468557725,0.007,17.61,2976,0
FRLM,2/1/21,3.237609748,2.89746496,0,18.85,2688,0
FRLM,3/1/21,2.63214516,3.409315583,0,18.22,2976,0
FRLM,4/1/21,2.022567011,2.964955493,0,15.64,2880,0
FRLM,5/1/21,3.477010415,4.804462659,0,20.82,2976,0
FRLM,6/1/21,4.268363192,5.508553563,0,28.81,2880,0
FRLM,7/1/21,3.292983201,4.581446882,0,21.88,2976,0
FRLM,8/1/21,2.874643478,4.840712925,0,24.51,2976,0
FRLM,9/1/21,4.209753129,4.807547121,0,23.14,2880,0
FRLM,10/1/21,4.342361562,4.86271282,0.05,24.05,2976,0
FRLM,11/1/21,3.631316158,2.438291061,0,14.81,2872,0
FRLM,12/1/21,4.872007073,2.152888247,0.032,12.8,2970,0
FRLM,1/1/22,4.323047715,2.265963149,0,13.85,2976,0
FRLM,2/1/22,3.550731024,2.304672963,0.013,14.95,2688,0
FRLM,3/1/22,3.942050737,5.143257075,0,28.01,2976,0
FRLM,4/1/22,2.870878817,4.379466036,0,23.97,2880,0
FRLM,5/1/22,5.412342069,5.918640508,0.001,29.54,2976,0
FRLM,6/1/22,3.332177424,4.092167832,0.004,21.06,2880,0
FRLM,7/1/22,6.589601484,6.275303426,0.01,25.54,2976,0
FRLM,8/1/22,4.076829304,4.936727175,0.011,22.59,2976,0
FRLM,9/1/22,3.885992711,4.982252744,0.004,21.75,2880,0
FRLM,10/1/22,4.131657931,4.573336638,0,28.14,2976,0
FRLM,11/1/22,4.356910068,2.605755276,0.016,18.86,2880,0
FRLM,12/1/22,5.280571271,2.912204551,0.086,19.34,905,0